| time (UTC) | temp F | wind direction | speed knots | gust knots | rain 1hr in | rain 24hr in | rain mn in | humidity % | barometer mb |
| 20260906194607 | 107 | 206 | 0.9 | 3.5 | 0.00 | 0.00 | 0.00 | 28 | 1012.1 |
| 20260906193103 | 106 | 0 | 0.9 | 6.1 | 0.00 | 0.00 | 0.00 | 29 | 1012.2 |
| 20260906191615 | 106 | 0 | 0.0 | 7.0 | 0.00 | 0.00 | 0.00 | 29 | 1012.2 |
| 20260906190059 | 105 | 56 | 2.6 | 8.7 | 0.00 | 0.00 | 0.00 | 30 | 1012.4 |
| 20260906184603 | 106 | 153 | 1.7 | 7.8 | 0.00 | 0.00 | 0.00 | 28 | 1012.5 |
| 20260906183107 | 107 | 197 | 0.0 | 4.3 | 0.00 | 0.00 | 0.00 | 29 | 1012.8 |
| 20260906181600 | 107 | 0 | 0.9 | 2.6 | 0.00 | 0.00 | 0.00 | 33 | 1013.0 |
| 20260906180116 | 105 | 0 | 0.0 | 2.6 | 0.00 | 0.00 | 0.00 | 33 | 1013.3 |
| 20260906174605 | 107 | 49 | 0.0 | 3.5 | 0.00 | 0.00 | 0.00 | 31 | 1013.6 |
| 20260906173102 | 105 | 232 | 0.0 | 3.5 | 0.00 | 0.00 | 0.00 | 33 | 1014.0 |
| 20260906171605 | 105 | 213 | 0.0 | 2.6 | 0.00 | 0.00 | 0.00 | 32 | 1014.2 |
| 20260906170123 | 104 | 50 | 0.9 | 3.5 | 0.00 | 0.00 | 0.00 | 35 | 1014.4 |
| 20260906164602 | 105 | 36 | 0.0 | 1.7 | 0.00 | 0.00 | 0.00 | 32 | 1014.5 |
| 20260906163116 | 105 | 284 | 0.0 | 3.5 | 0.00 | 0.00 | 0.00 | 35 | 1014.6 |
| 20260906161607 | 102 | 288 | 0.0 | 1.7 | 0.00 | 0.00 | 0.00 | 36 | 1014.6 |
| 20260906160104 | 102 | 0 | 0.9 | 2.6 | 0.00 | 0.00 | 0.00 | 37 | 1014.6 |
| 20260906154600 | 100 | 0 | 0.0 | 2.6 | 0.00 | 0.00 | 0.00 | 41 | 1014.7 |
| 20260906153100 | 97 | 0 | 0.0 | 2.6 | 0.00 | 0.00 | 0.00 | 44 | 1014.6 |
| 20260906151605 | 96 | 0 | 0.0 | 2.6 | 0.00 | 0.00 | 0.00 | 47 | 1014.5 |
| 20260906150111 | 96 | 0 | 0.0 | 0.9 | 0.00 | 0.00 | 0.00 | 47 | 1014.6 |
| 20260906144603 | 93 | 0 | 0.0 | 2.6 | 0.00 | 0.00 | 0.00 | 50 | 1014.7 |
| 20260906143101 | 90 | 0 | 0.0 | 1.7 | 0.00 | 0.00 | 0.00 | 54 | 1014.7 |
| 20260906141600 | 88 | 0 | 0.0 | 2.6 | 0.00 | 0.00 | 0.00 | 57 | 1014.6 |
| 20260906134601 | 85 | 0 | 0.0 | 0.9 | 0.00 | 0.00 | 0.00 | 65 | 1014.5 |
| 20260906133133 | 83 | 0 | 0.0 | 0.9 | 0.00 | 0.00 | 0.00 | 73 | 1014.2 |
| 20260906131600 | 80 | 0 | 0.0 | 0.0 | 0.00 | 0.00 | 0.00 | 77 | 1014.1 |
| 20260906130115 | 78 | 0 | 0.0 | 0.0 | 0.00 | 0.00 | 0.00 | 82 | 1013.9 |
| 20260906124601 | 76 | 0 | 0.0 | 0.0 | 0.00 | 0.00 | 0.00 | 83 | 1013.8 |
| 20260906123104 | 75 | 0 | 0.0 | 0.0 | 0.00 | 0.00 | 0.00 | 84 | 1013.7 |
| 20260906121601 | 75 | 0 | 0.0 | 0.0 | 0.00 | 0.00 | 0.00 | 84 | 1013.6 |
| 20260906120105 | 75 | 0 | 0.0 | 0.0 | 0.00 | 0.00 | 0.00 | 84 | 1013.4 |
| 20260906114601 | 76 | 0 | 0.0 | 0.0 | 0.00 | 0.00 | 0.00 | 83 | 1013.4 |
| 20260906113101 | 76 | 0 | 0.0 | 0.0 | 0.00 | 0.00 | 0.00 | 82 | 1013.4 |
| 20260906111617 | 77 | 0 | 0.0 | 0.0 | 0.00 | 0.00 | 0.00 | 82 | 1013.2 |
| 20260906104604 | 77 | 0 | 0.0 | 0.0 | 0.00 | 0.00 | 0.00 | 81 | 1013.3 |
| 20260906103104 | 77 | 0 | 0.0 | 0.0 | 0.00 | 0.00 | 0.00 | 81 | 1013.3 |
| 20260906101601 | 78 | 0 | 0.0 | 0.9 | 0.00 | 0.00 | 0.00 | 80 | 1013.2 |
| 20260906100104 | 78 | 0 | 0.0 | 0.0 | 0.00 | 0.00 | 0.00 | 80 | 1013.4 |
| 20260906094600 | 77 | 0 | 0.0 | 0.0 | 0.00 | 0.00 | 0.00 | 80 | 1013.3 |
| 20260906093057 | 77 | 0 | 0.0 | 0.9 | 0.00 | 0.00 | 0.00 | 79 | 1013.0 |
| 20260906091602 | 77 | 0 | 0.0 | 0.0 | 0.00 | 0.00 | 0.00 | 78 | 1012.9 |
| 20260906090104 | 78 | 0 | 0.0 | 0.0 | 0.00 | 0.00 | 0.00 | 78 | 1012.9 |
| 20260906084601 | 78 | 0 | 0.0 | 0.9 | 0.00 | 0.00 | 0.00 | 78 | 1012.9 |
| 20260906083100 | 78 | 0 | 0.0 | 0.9 | 0.00 | 0.00 | 0.00 | 78 | 1012.8 |
| 20260906081603 | 78 | 0 | 0.0 | 0.9 | 0.00 | 0.00 | 0.00 | 77 | 1012.8 |
| 20260906080107 | 78 | 0 | 0.0 | 2.6 | 0.00 | 0.00 | 0.00 | 77 | 1012.5 |
| 20260906074602 | 80 | 0 | 0.0 | 0.0 | 0.00 | 0.00 | 0.00 | 74 | 1012.4 |
| 20260906073059 | 80 | 0 | 0.0 | 0.0 | 0.00 | 0.00 | 0.00 | 73 | 1012.5 |
| 20260906071602 | 80 | 0 | 0.0 | 0.0 | 0.00 | 0.00 | 0.00 | 73 | 1012.5 |
| 20260906070103 | 80 | 0 | 0.0 | 0.0 | 0.00 | 0.00 | 0.00 | 71 | 1012.5 |
| 20260906064600 | 81 | 0 | 0.0 | 0.9 | 0.00 | 0.00 | 0.00 | 70 | 1012.6 |
| 20260906063104 | 81 | 0 | 0.0 | 0.0 | 0.00 | 0.00 | 0.00 | 69 | 1012.6 |
| 20260906061604 | 81 | 0 | 0.0 | 0.0 | 0.00 | 0.00 | 0.00 | 67 | 1012.5 |
| 20260906054607 | 82 | 0 | 0.0 | 0.0 | 0.00 | 0.00 | 0.00 | 65 | 1012.5 |
| 20260906053103 | 82 | 0 | 0.0 | 0.0 | 0.00 | 0.00 | 0.00 | 66 | 1012.7 |
| 20260906051612 | 83 | 0 | 0.0 | 0.0 | 0.00 | 0.00 | 0.00 | 66 | 1012.8 |
| 20260906050104 | 83 | 0 | 0.0 | 0.0 | 0.00 | 0.00 | 0.00 | 64 | 1012.6 |
| 20260906044609 | 83 | 0 | 0.0 | 0.0 | 0.00 | 0.00 | 0.00 | 65 | 1012.5 |
| 20260906043100 | 84 | 0 | 0.0 | 0.0 | 0.00 | 0.00 | 0.00 | 64 | 1012.4 |
| 20260906041601 | 84 | 0 | 0.0 | 0.0 | 0.00 | 0.00 | 0.00 | 64 | 1012.4 |
| 20260906040139 | 85 | 0 | 0.0 | 0.0 | 0.00 | 0.00 | 0.00 | 64 | 1012.5 |
| 20260906034610 | 85 | 0 | 0.0 | 0.0 | 0.00 | 0.00 | 0.00 | 64 | 1012.5 |
| 20260906033106 | 85 | 0 | 0.0 | 0.0 | 0.00 | 0.00 | 0.00 | 64 | 1012.4 |
| 20260906031600 | 86 | 0 | 0.0 | 0.0 | 0.00 | 0.00 | 0.00 | 62 | 1012.3 |
| 20260906030104 | 86 | 0 | 0.0 | 0.0 | 0.00 | 0.00 | 0.00 | 60 | 1012.1 |
| 20260906024613 | 87 | 0 | 0.0 | 0.0 | 0.00 | 0.00 | 0.00 | 60 | 1012.1 |
| 20260906023104 | 88 | 0 | 0.0 | 0.0 | 0.00 | 0.00 | 0.00 | 58 | 1011.8 |
| 20260906021603 | 89 | 0 | 0.0 | 0.0 | 0.00 | 0.00 | 0.00 | 56 | 1011.7 |
| 20260906020106 | 90 | 0 | 0.0 | 0.0 | 0.00 | 0.00 | 0.00 | 53 | 1011.7 |
| 20260906014600 | 91 | 0 | 0.0 | 0.0 | 0.00 | 0.00 | 0.00 | 51 | 1011.4 |
| 20260906013114 | 92 | 0 | 0.0 | 0.0 | 0.00 | 0.00 | 0.00 | 49 | 1011.1 |
| 20260906011602 | 94 | 0 | 0.0 | 0.0 | 0.00 | 0.00 | 0.00 | 44 | 1011.1 |
| 20260906010104 | 96 | 0 | 0.0 | 0.0 | 0.00 | 0.00 | 0.00 | 41 | 1011.1 |
| 20260906004604 | 97 | 0 | 0.0 | 0.0 | 0.00 | 0.00 | 0.00 | 38 | 1011.1 |
| 20260906003104 | 98 | 0 | 0.0 | 0.0 | 0.00 | 0.00 | 0.00 | 37 | 1011.2 |
| 20260906001610 | 99 | 0 | 0.0 | 1.7 | 0.00 | 0.00 | 0.00 | 35 | 1011.2 |
| 20260906000059 | 101 | 114 | 0.0 | 1.7 | 0.00 | 0.00 | 0.00 | 34 | 1011.2 |
| 20260905234604 | 101 | 0 | 0.0 | 1.7 | 0.00 | 0.00 | 0.00 | 34 | 1011.2 |
| 20260905233102 | 101 | 0 | 0.0 | 2.6 | 0.00 | 0.00 | 0.00 | 34 | 1011.0 |
| 20260905231600 | 101 | 66 | 0.0 | 5.2 | 0.00 | 0.00 | 0.00 | 34 | 1010.9 |
| 20260905230106 | 101 | 0 | 0.0 | 7.0 | 0.00 | 0.00 | 0.00 | 34 | 1011.0 |
| 20260905224617 | 101 | 122 | 0.9 | 6.1 | 0.00 | 0.00 | 0.00 | 33 | 1011.0 |
| 20260905223116 | 102 | 150 | 0.9 | 5.2 | 0.00 | 0.00 | 0.00 | 33 | 1010.9 |
| 20260905220105 | 102 | 0 | 1.7 | 6.1 | 0.00 | 0.00 | 0.00 | 32 | 1011.0 |
| 20260905214605 | 103 | 97 | 0.9 | 7.8 | 0.00 | 0.00 | 0.00 | 32 | 1011.2 |
| 20260905213105 | 102 | 175 | 0.0 | 6.1 | 0.00 | 0.00 | 0.00 | 34 | 1011.4 |
| 20260905211605 | 103 | 103 | 1.7 | 7.8 | 0.00 | 0.00 | 0.00 | 33 | 1011.5 |
| 20260905210108 | 103 | 112 | 1.7 | 8.7 | 0.00 | 0.00 | 0.00 | 34 | 1011.7 |
| 20260905204603 | 103 | 109 | 1.7 | 7.0 | 0.00 | 0.00 | 0.00 | 35 | 1011.9 |
| 20260905203100 | 103 | 0 | 0.9 | 7.0 | 0.00 | 0.00 | 0.00 | 34 | 1012.1 |
| 20260905201558 | 103 | 129 | 1.7 | 7.0 | 0.00 | 0.00 | 0.00 | 33 | 1012.4 |
| 20260905200105 | 103 | 124 | 0.9 | 7.0 | 0.00 | 0.00 | 0.00 | 33 | 1012.6 |